Location: Silverdale
(47.6506°N, 122.6941°W)
Time: 03:53:08
(UTC+00:00)

Altair - Pass Details

Date: 03 October 2022
Orbit: 1501 x 1682 km, 47.2° (Epoch: 04 December)

Event Time Altitude Azimuth Distance (km) Brightness Sun altitude
Rises 14:24:22 0° 249° (WSW) 4,789 9.5 1.1°
Reaches altitude 10° 14:27:25 10° 248° (WSW) 3,829 9.1 1.6°
Maximum altitude 14:37:14 80° 164° (SSE) 1,679 7.9 3.2°
Drops below altitude 10° 14:47:23 10° 80° (E) 3,942 11.2 4.9°
Sets 14:50:34 0° 79° (E) 4,937 11.6 5.4°
